Location: Berlise
(49.6641°N, 4.1077°E)
Time: 18:38:50
(UTC+00:00)

FALCON 9 DEB - Pass Details

Date: 27 January 2021
Orbit: 424 x 437 km, 53.0° (Epoch: 26 February)

Event Time Altitude Azimuth Distance (km) Brightness Sun altitude
Exits shadow 06:00:45 24° 296° (WNW) 933 4.2 -13.2°
Maximum altitude 06:02:27 46° 358° (N) 587 3.6 -12.9°
Drops below altitude 10° 06:05:45 10° 73° (ENE) 1,523 6.8 -12.4°
Sets 06:07:55 0° 80° (E) 2,392 8.2 -12.1°
